When you browse on this site, cookies collect data to enhance your experience and personalize the content and advertising you see.
Visit our Privacy Policy to learn more. By continuing to use the site, you agree to this use of cookies and data.
  • In Austria
  • List of Countries
  • For 7 days
  • Water Temperature
  • Satellite Maps
  • Weather Map
  • News
  • Weather Widgets
  • user-avatar
    Login

    Hourly Weather Algiers

    Today, 17 November, Saturday

    Time Temperature Precipitation Wind Pressure Humidity
    00:00 +15°C° 0 mm 4 mps 748 mmHg 89%
    01:00 +15°C° 0 mm 4 mps 748 mmHg 90%
    02:00 +14°C° 0 mm 3 mps 748 mmHg 90%
    03:00 +14°C° 0 mm 3 mps 747 mmHg 90%
    04:00 +14°C° 0 mm 3 mps 747 mmHg 90%
    05:00 +14°C° 0 mm 3 mps 747 mmHg 90%
    06:00 +14°C° 0 mm 3 mps 747 mmHg 90%
    07:00 +16°C° 0 mm 3 mps 747 mmHg 85%
    08:00 +17°C° 0 mm 2 mps 747 mmHg 80%
    09:00 +18°C° 0 mm 2 mps 747 mmHg 75%
    10:00 +19°C° 0 mm 2 mps 747 mmHg 71%
    11:00 +19°C° 0 mm 3 mps 746 mmHg 66%
    12:00 +20°C° 0 mm 3 mps 746 mmHg 62%
    13:00 +20°C° 0 mm 3 mps 746 mmHg 64%
    14:00 +20°C° 0 mm 3 mps 746 mmHg 66%
    15:00 +19°C° 0 mm 3 mps 745 mmHg 69%
    16:00 +18°C° 0 mm 2 mps 745 mmHg 75%
    17:00 +17°C° 0 mm 2 mps 746 mmHg 81%
    18:00 +16°C° 0 mm 2 mps 746 mmHg 88%
    19:00 +16°C° 0 mm 1 mps 746 mmHg 89%
    20:00 +16°C° 0 mm 1 mps 746 mmHg 90%
    21:00 +15°C° 0 mm 1 mps 746 mmHg 91%
    22:00 +15°C° 0 mm 1 mps 745 mmHg 91%
    23:00 +15°C° 0 mm 1 mps 745 mmHg 91%

    Tomorrow, 18 November, Sunday

    Time Temperature Precipitation Wind Pressure Humidity
    00:00 +15°C° 0 mm 1 mps 745 mmHg 90%
    01:00 +14°C° 0 mm 1 mps 745 mmHg 89%
    02:00 +14°C° 0 mm 1 mps 744 mmHg 88%
    03:00 +14°C° 0 mm 2 mps 744 mmHg 87%
    04:00 +14°C° 0 mm 2 mps 744 mmHg 85%
    05:00 +14°C° 0 mm 2 mps 744 mmHg 82%
    06:00 +13°C° 0 mm 3 mps 744 mmHg 80%
    07:00 +16°C° 0 mm 3 mps 744 mmHg 74%
    08:00 +17°C° 0 mm 3 mps 744 mmHg 68%
    09:00 +18°C° 0 mm 3 mps 744 mmHg 62%
    10:00 +19°C° 0 mm 4 mps 743 mmHg 58%
    11:00 +20°C° 0 mm 4 mps 743 mmHg 53%
    12:00 +22°C° 0 mm 5 mps 742 mmHg 49%
    13:00 +22°C° 0 mm 5 mps 742 mmHg 46%
    14:00 +23°C° 0 mm 5 mps 741 mmHg 43%
    15:00 +23°C° 0 mm 6 mps 741 mmHg 40%
    16:00 +22°C° 0 mm 6 mps 741 mmHg 44%
    17:00 +21°C° 0 mm 6 mps 741 mmHg 48%
    18:00 +20°C° 0 mm 6 mps 741 mmHg 53%
    19:00 +19°C° 0 mm 6 mps 741 mmHg 54%
    20:00 +19°C° 0 mm 5 mps 741 mmHg 56%
    21:00 +19°C° 0 mm 5 mps 740 mmHg 58%
    22:00 +17°C° 0 mm 5 mps 740 mmHg 62%
    23:00 +17°C° 0 mm 5 mps 740 mmHg 65%

    Day after tomorrow, 19 November, Monday

    Time Temperature Precipitation Wind Pressure Humidity
    00:00 +16°C° 0 mm 5 mps 739 mmHg 69%
    01:00 +17°C° 0 mm 4 mps 739 mmHg 70%
    02:00 +15°C° 0 mm 4 mps 738 mmHg 72%
    03:00 +15°C° 0 mm 4 mps 738 mmHg 73%
    04:00 +15°C° 0 mm 4 mps 738 mmHg 74%
    05:00 +15°C° 0 mm 4 mps 737 mmHg 75%
    06:00 +14°C° 0 mm 4 mps 737 mmHg 75%
    07:00 +15°C° 0.5 mm 4 mps 737 mmHg 71%
    08:00 +16°C° 0.5 mm 5 mps 737 mmHg 68%
    09:00 +17°C° 0.5 mm 5 mps 737 mmHg 64%
    10:00 +17°C° 1 mm 5 mps 737 mmHg 64%
    11:00 +17°C° 1 mm 6 mps 736 mmHg 64%
    12:00 +17°C° 1 mm 7 mps 736 mmHg 64%
    13:00 +17°C° 0.6 mm 7 mps 736 mmHg 61%
    14:00 +17°C° 0.6 mm 7 mps 735 mmHg 59%
    15:00 +17°C° 0.6 mm 8 mps 735 mmHg 56%
    16:00 +17°C° 0.2 mm 8 mps 735 mmHg 59%
    17:00 +16°C° 0.2 mm 8 mps 735 mmHg 62%
    18:00 +15°C° 0.2 mm 8 mps 735 mmHg 65%
    19:00 +15°C° 0.5 mm 9 mps 735 mmHg 67%
    20:00 +15°C° 0.5 mm 9 mps 735 mmHg 69%
    21:00 +13°C° 0.5 mm 10 mps 736 mmHg 70%
    22:00 +13°C° 0.7 mm 10 mps 736 mmHg 73%
    23:00 +13°C° 0.7 mm 11 mps 736 mmHg 75%

    20 November, Tuesday

    Time Temperature Precipitation Wind Pressure Humidity
    00:00 +13°C° 0.7 mm 11 mps 735 mmHg 77%
    01:00 +13°C° 0.4 mm 10 mps 736 mmHg 77%
    02:00 +13°C° 0.4 mm 9 mps 736 mmHg 78%
    03:00 +12°C° 0.4 mm 8 mps 736 mmHg 78%
    04:00 +12°C° 0.5 mm 7 mps 737 mmHg 81%
    05:00 +13°C° 0.5 mm 6 mps 738 mmHg 84%
    06:00 +14°C° 0.5 mm 6 mps 738 mmHg 86%
    07:00 +14°C° 0.5 mm 6 mps 739 mmHg 81%
    08:00 +15°C° 0.5 mm 6 mps 740 mmHg 76%
    09:00 +15°C° 0.5 mm 7 mps 741 mmHg 71%
    10:00 +17°C° 0.1 mm 7 mps 741 mmHg 65%
    11:00 +18°C° 0.1 mm 7 mps 741 mmHg 58%
    12:00 +20°C° 0.1 mm 7 mps 741 mmHg 51%
    13:00 +20°C° 0 mm 6 mps 741 mmHg 49%
    14:00 +20°C° 0 mm 5 mps 741 mmHg 46%
    15:00 +20°C° 0 mm 5 mps 741 mmHg 43%
    16:00 +19°C° 0 mm 4 mps 741 mmHg 48%
    17:00 +18°C° 0 mm 4 mps 741 mmHg 52%
    18:00 +17°C° 0 mm 3 mps 742 mmHg 56%
    19:00 +17°C° 0.1 mm 4 mps 742 mmHg 59%
    20:00 +15°C° 0.1 mm 5 mps 742 mmHg 62%
    21:00 +15°C° 0.1 mm 6 mps 743 mmHg 64%
    22:00 +15°C° 0 mm 6 mps 743 mmHg 66%
    23:00 +15°C° 0 mm 7 mps 743 mmHg 67%

    21 November, Wednesday

    Time Temperature Precipitation Wind Pressure Humidity
    00:00 +13°C° 0 mm 8 mps 743 mmHg 69%
    01:00 +13°C° 0.2 mm 8 mps 743 mmHg 70%
    02:00 +13°C° 0.2 mm 8 mps 743 mmHg 71%
    03:00 +13°C° 0.2 mm 8 mps 743 mmHg 72%
    04:00 +13°C° 0.3 mm 8 mps 744 mmHg 74%
    05:00 +12°C° 0.3 mm 8 mps 744 mmHg 75%
    06:00 +12°C° 0.3 mm 8 mps 744 mmHg 76%
    07:00 +13°C° 0.1 mm 8 mps 745 mmHg 69%
    08:00 +15°C° 0.1 mm 8 mps 746 mmHg 63%
    09:00 +16°C° 0.1 mm 8 mps 746 mmHg 56%
    10:00 +17°C° 0 mm 8 mps 746 mmHg 55%
    11:00 +18°C° 0 mm 8 mps 746 mmHg 53%
    12:00 +18°C° 0 mm 8 mps 746 mmHg 52%
    13:00 +20°C° 0.1 mm 7 mps 746 mmHg 50%
    14:00 +20°C° 0.1 mm 7 mps 746 mmHg 48%
    15:00 +20°C° 0.1 mm 7 mps 746 mmHg 47%
    16:00 +19°C° 0.1 mm 6 mps 747 mmHg 50%
    17:00 +17°C° 0.1 mm 5 mps 747 mmHg 54%
    18:00 +15°C° 0.1 mm 4 mps 748 mmHg 57%
    19:00 +15°C° 0 mm 4 mps 748 mmHg 56%
    20:00 +15°C° 0 mm 4 mps 748 mmHg 56%
    21:00 +16°C° 0 mm 3 mps 749 mmHg 55%
    22:00 +16°C° 0 mm 3 mps 749 mmHg 56%
    23:00 +16°C° 0 mm 3 mps 749 mmHg 58%

    22 November, Thursday

    Time Temperature Precipitation Wind Pressure Humidity
    00:00 +16°C° 0 mm 3 mps 749 mmHg 59%
    01:00 +15°C° 0 mm 2 mps 749 mmHg 60%
    02:00 +15°C° 0 mm 2 mps 749 mmHg 62%
    03:00 +15°C° 0 mm 2 mps 749 mmHg 63%
    04:00 +15°C° 0 mm 2 mps 749 mmHg 63%
    05:00 +15°C° 0 mm 2 mps 749 mmHg 63%
    06:00 +15°C° 0 mm 2 mps 750 mmHg 63%
    07:00 +16°C° 0 mm 2 mps 750 mmHg 59%
    08:00 +17°C° 0 mm 3 mps 750 mmHg 55%
    09:00 +18°C° 0 mm 3 mps 750 mmHg 51%
    10:00 +19°C° 0 mm 3 mps 750 mmHg 47%
    11:00 +21°C° 0 mm 3 mps 750 mmHg 42%
    12:00 +23°C° 0 mm 2 mps 750 mmHg 38%
    13:00 +23°C° 0 mm 2 mps 750 mmHg 38%
    14:00 +22°C° 0 mm 3 mps 749 mmHg 38%
    15:00 +22°C° 0 mm 3 mps 749 mmHg 37%
    16:00 +21°C° 0 mm 3 mps 750 mmHg 40%
    17:00 +20°C° 0 mm 2 mps 750 mmHg 42%
    18:00 +19°C° 0 mm 2 mps 750 mmHg 44%
    19:00 +19°C° 0 mm 2 mps 751 mmHg 46%
    20:00 +18°C° 0 mm 2 mps 751 mmHg 47%
    21:00 +18°C° 0 mm 2 mps 751 mmHg 49%
    22:00 +17°C° 0 mm 2 mps 751 mmHg 50%
    23:00 +17°C° 0 mm 2 mps 751 mmHg 51%
    Show more